Location: Bad Salzschlirf
(50.3750°N, 9.3000°E)
Time: 16:46:10
(UTC+02:00)

ISS - Pass Details

Date: 24 May 2020
Orbit: 417 x 420 km, 51.6° (Epoch: 25 May)

Event Time Altitude Azimuth Distance (km) Brightness Sun altitude
Rises 01:31:16 0° 284° (WNW) 2,368 0.2 -18.8°
Reaches altitude 10° 01:33:40 10° 269° (W) 1,501 -1.0 -18.7°
Enters shadow 01:33:55 11° 266° (W) 1,426 -1.2 -18.7°
